When you browse on this site, cookies collect data to enhance your experience and personalize the content and advertising you see.
Visit our Privacy Policy to learn more. By continuing to use the site, you agree to this use of cookies and data.

Tiempo cada hora El Monte

Hoy, 12 Agosto, Miércoles

Tiempo Temperatura Precipitaciones Viento Presión Humedad
00:00 +5°C° 0 mm 0 mps 736 mmHg 84%
01:00 +5°C° 0 mm 0 mps 736 mmHg 85%
02:00 +5°C° 0 mm 0 mps 736 mmHg 85%
03:00 +4°C° 0 mm 0 mps 736 mmHg 86%
04:00 +4°C° 0 mm 0 mps 736 mmHg 87%
05:00 +4°C° 0 mm 0 mps 736 mmHg 87%
06:00 +4°C° 0 mm 0 mps 737 mmHg 87%
07:00 +5°C° 0 mm 0 mps 737 mmHg 87%
08:00 +8°C° 0 mm 1 mps 737 mmHg 81%
09:00 +10°C° 0 mm 1 mps 737 mmHg 74%
10:00 +12°C° 0 mm 1 mps 737 mmHg 67%
11:00 +13°C° 0 mm 1 mps 737 mmHg 66%
12:00 +14°C° 0 mm 2 mps 737 mmHg 64%
13:00 +15°C° 0 mm 2 mps 737 mmHg 62%
14:00 +15°C° 0 mm 2 mps 737 mmHg 65%
15:00 +14°C° 0 mm 2 mps 737 mmHg 68%
16:00 +14°C° 0 mm 2 mps 737 mmHg 71%
17:00 +12°C° 0 mm 1 mps 738 mmHg 77%
18:00 +10°C° 0 mm 1 mps 738 mmHg 83%
19:00 +7°C° 0 mm 0 mps 738 mmHg 89%
20:00 +7°C° 0 mm 0 mps 739 mmHg 89%
21:00 +7°C° 0 mm 0 mps 739 mmHg 90%
22:00 +6°C° 0 mm 0 mps 739 mmHg 91%
23:00 +6°C° 0 mm 0 mps 739 mmHg 91%

Mañana, 13 Agosto, Jueves

Tiempo Temperatura Precipitaciones Viento Presión Humedad
00:00 +6°C° 0 mm 0 mps 739 mmHg 91%
01:00 +6°C° 0 mm 0 mps 739 mmHg 91%
02:00 +6°C° 0 mm 0 mps 739 mmHg 90%
03:00 +5°C° 0 mm 0 mps 738 mmHg 90%
04:00 +5°C° 0 mm 0 mps 738 mmHg 90%
05:00 +5°C° 0 mm 0 mps 738 mmHg 89%
06:00 +5°C° 0 mm 0 mps 738 mmHg 89%
07:00 +6°C° 0 mm 0 mps 739 mmHg 89%
08:00 +8°C° 0 mm 0 mps 738 mmHg 82%
09:00 +11°C° 0 mm 1 mps 738 mmHg 76%
10:00 +13°C° 0 mm 1 mps 738 mmHg 70%
11:00 +14°C° 0 mm 1 mps 738 mmHg 67%
12:00 +15°C° 0 mm 2 mps 737 mmHg 65%
13:00 +16°C° 0 mm 2 mps 737 mmHg 63%
14:00 +15°C° 0 mm 2 mps 737 mmHg 66%
15:00 +15°C° 0 mm 2 mps 737 mmHg 69%
16:00 +14°C° 0 mm 2 mps 737 mmHg 72%
17:00 +12°C° 0 mm 2 mps 737 mmHg 78%
18:00 +11°C° 0 mm 1 mps 738 mmHg 84%
19:00 +9°C° 0 mm 1 mps 738 mmHg 90%
20:00 +8°C° 0 mm 1 mps 738 mmHg 91%
21:00 +7°C° 0 mm 0 mps 738 mmHg 92%
22:00 +6°C° 0 mm 0 mps 738 mmHg 93%
23:00 +6°C° 0 mm 0 mps 738 mmHg 92%

Pasado mañana, 14 Agosto, Viernes

Tiempo Temperatura Precipitaciones Viento Presión Humedad
00:00 +6°C° 0 mm 0 mps 738 mmHg 92%
01:00 +6°C° 0 mm 0 mps 738 mmHg 91%
02:00 +6°C° 0 mm 0 mps 738 mmHg 91%
03:00 +6°C° 0 mm 0 mps 738 mmHg 90%
04:00 +6°C° 0 mm 0 mps 739 mmHg 90%
05:00 +6°C° 0 mm 0 mps 739 mmHg 90%
06:00 +6°C° 0 mm 0 mps 740 mmHg 90%
07:00 +6°C° 0 mm 0 mps 740 mmHg 90%
08:00 +8°C° 0 mm 0 mps 740 mmHg 84%
09:00 +11°C° 0 mm 1 mps 740 mmHg 78%
10:00 +13°C° 0 mm 1 mps 740 mmHg 72%
11:00 +13°C° 0 mm 1 mps 739 mmHg 70%
12:00 +14°C° 0 mm 2 mps 739 mmHg 68%
13:00 +15°C° 0 mm 2 mps 738 mmHg 65%
14:00 +14°C° 0 mm 2 mps 739 mmHg 67%
15:00 +14°C° 0 mm 2 mps 739 mmHg 69%
16:00 +14°C° 0 mm 2 mps 739 mmHg 70%
17:00 +12°C° 0 mm 2 mps 739 mmHg 76%
18:00 +10°C° 0 mm 1 mps 740 mmHg 81%
19:00 +8°C° 0 mm 1 mps 740 mmHg 87%
20:00 +8°C° 0 mm 1 mps 740 mmHg 87%
21:00 +7°C° 0 mm 1 mps 740 mmHg 87%
22:00 +6°C° 0 mm 0 mps 740 mmHg 87%
23:00 +7°C° 0 mm 1 mps 740 mmHg 87%

15 Agosto, Sábado

Tiempo Temperatura Precipitaciones Viento Presión Humedad
00:00 +6°C° 0 mm 1 mps 740 mmHg 87%
01:00 +6°C° 0 mm 1 mps 740 mmHg 87%
02:00 +6°C° 0 mm 1 mps 740 mmHg 87%
03:00 +6°C° 0 mm 1 mps 740 mmHg 87%
04:00 +5°C° 0 mm 1 mps 739 mmHg 88%
05:00 +6°C° 0 mm 1 mps 739 mmHg 87%
06:00 +6°C° 0 mm 1 mps 740 mmHg 87%
07:00 +6°C° 0 mm 1 mps 740 mmHg 86%
08:00 +8°C° 0 mm 1 mps 739 mmHg 79%
09:00 +10°C° 0 mm 1 mps 739 mmHg 72%
10:00 +12°C° 0 mm 1 mps 739 mmHg 65%
11:00 +13°C° 0 mm 1 mps 739 mmHg 62%
12:00 +14°C° 0 mm 2 mps 738 mmHg 59%
13:00 +15°C° 0 mm 2 mps 738 mmHg 57%
14:00 +15°C° 0 mm 2 mps 738 mmHg 59%
15:00 +14°C° 0 mm 2 mps 738 mmHg 62%
16:00 +14°C° 0 mm 2 mps 738 mmHg 65%
17:00 +12°C° 0 mm 2 mps 738 mmHg 70%
18:00 +10°C° 0 mm 1 mps 738 mmHg 75%
19:00 +8°C° 0 mm 1 mps 739 mmHg 80%
20:00 +8°C° 0 mm 1 mps 739 mmHg 80%
21:00 +8°C° 0 mm 1 mps 739 mmHg 79%
22:00 +7°C° 0 mm 1 mps 739 mmHg 79%
23:00 +7°C° 0 mm 1 mps 739 mmHg 79%

16 Agosto, Domingo

Tiempo Temperatura Precipitaciones Viento Presión Humedad
00:00 +7°C° 0 mm 1 mps 739 mmHg 79%
01:00 +6°C° 0 mm 1 mps 738 mmHg 79%
02:00 +6°C° 0 mm 1 mps 738 mmHg 79%
03:00 +6°C° 0 mm 1 mps 738 mmHg 78%
04:00 +6°C° 0 mm 1 mps 737 mmHg 78%
05:00 +6°C° 0 mm 1 mps 737 mmHg 77%
06:00 +6°C° 0 mm 1 mps 738 mmHg 76%
07:00 +6°C° 0 mm 1 mps 738 mmHg 75%
08:00 +8°C° 0 mm 1 mps 738 mmHg 68%
09:00 +11°C° 0 mm 1 mps 738 mmHg 62%
10:00 +13°C° 0 mm 1 mps 738 mmHg 55%
11:00 +14°C° 0 mm 1 mps 737 mmHg 54%
12:00 +15°C° 0 mm 1 mps 737 mmHg 53%
13:00 +16°C° 0 mm 2 mps 737 mmHg 52%
14:00 +16°C° 0 mm 2 mps 737 mmHg 56%
15:00 +15°C° 0 mm 2 mps 737 mmHg 60%
16:00 +15°C° 0 mm 2 mps 737 mmHg 64%
17:00 +13°C° 0 mm 1 mps 737 mmHg 70%
18:00 +11°C° 0 mm 1 mps 738 mmHg 76%
19:00 +8°C° 0 mm 0 mps 738 mmHg 83%
20:00 +7°C° 0 mm 0 mps 738 mmHg 83%
21:00 +7°C° 0 mm 0 mps 738 mmHg 84%
22:00 +7°C° 0 mm 0 mps 738 mmHg 84%
23:00 +6°C° 0 mm 0 mps 738 mmHg 84%

17 Agosto, Lunes

Tiempo Temperatura Precipitaciones Viento Presión Humedad
00:00 +6°C° 0 mm 0 mps 738 mmHg 84%
01:00 +6°C° 0 mm 0 mps 738 mmHg 84%
02:00 +6°C° 0 mm 0 mps 738 mmHg 83%
03:00 +6°C° 0 mm 0 mps 738 mmHg 83%
04:00 +5°C° 0 mm 0 mps 738 mmHg 83%
05:00 +6°C° 0 mm 0 mps 738 mmHg 82%
06:00 +6°C° 0 mm 0 mps 738 mmHg 81%
07:00 +6°C° 0 mm 0 mps 738 mmHg 81%
08:00 +8°C° 0 mm 0 mps 738 mmHg 74%
09:00 +11°C° 0 mm 0 mps 738 mmHg 67%
10:00 +14°C° 0 mm 1 mps 738 mmHg 60%
11:00 +15°C° 0 mm 1 mps 738 mmHg 59%
12:00 +16°C° 0 mm 1 mps 738 mmHg 58%
13:00 +17°C° 0 mm 2 mps 737 mmHg 56%
14:00 +17°C° 0 mm 2 mps 737 mmHg 60%
15:00 +16°C° 0 mm 2 mps 738 mmHg 64%
16:00 +16°C° 0 mm 2 mps 738 mmHg 68%
17:00 +14°C° 0 mm 1 mps 738 mmHg 74%
18:00 +12°C° 0 mm 1 mps 738 mmHg 81%
19:00 +9°C° 0 mm 0 mps 738 mmHg 87%
20:00 +8°C° 0 mm 0 mps 738 mmHg 88%
21:00 +8°C° 0 mm 0 mps 739 mmHg 88%
22:00 +8°C° 0 mm 0 mps 739 mmHg 89%
23:00 +8°C° 0 mm 0 mps 739 mmHg 88%
Mostrar más